Tracking 22456 objects as of 7-Mar-2021
HD Live streaming from Space Station
objects crossing your sky now

INTELSAT 4-F7

Track INTELSAT 4-F7 now!
INTELSAT 4-F7 is classified as:


NORAD ID: 6796
Int'l Code: 1973-058A
Perigee: 36,088.8 km
Apogee: 36,133.9 km
Inclination: 11.6 °
Period: 1,452.4 minutes
Semi major axis: 42482 km
RCS: 1.5964 m2 (large)
Launch date: August 23, 1973
Source: International Telecommunications Satellite Organization (ITSO)
Launch site: AIR FORCE EASTERN TEST RANGE (AFETR)
aabbcc
Your satellite tracking list
Your tracking list is empty




NASA's NSSDC Master Catalog

Two Line Element Set (TLE):
1 06796U 73058A   21065.44718648 -.00000253  00000-0  00000-0 0  9998
2 06796  11.5712 315.2549 0005310 120.9280  54.2416  0.99149269116523
Source of the keplerian elements: AFSPC